Theta_e
361 361 358 359 360 360 362 361 355 339 336 351 353 352 350 349 347 346 345 345 345 344 344 344 343 343 343 343 343 343 342 342 343 342 343 345 340 340 340 340 338 337 336
360 360 362 361 363 363 361 359 354 347 351 353 353 352 349 348 346 346 347 345 346 346 344 344 345 341 338 339 336 338 344 341 341 339 341 342 343 340 340 340 340 339 340
361 362 363 364 363 362 361 357 348 347 353 353 352 350 349 347 346 346 346 346 345 346 346 343 341 342 340 339 341 343 342 340 340 342 342 342 341 341 342 340 340 340 340
363 362 363 363 363 362 358 353 346 349 354 352 350 350 348 347 346 345 345 345 344 344 345 346 346 344 342 343 342 341 341 342 343 340 340 342 343 342 341 341 340 340 337
361 360 361 362 361 357 354 350 345 351 353 352 350 348 348 347 345 345 345 343 345 344 343 343 344 344 344 344 345 343 343 341 343 343 343 340 340 341 342 341 339 339 337
358 358 361 358 354 352 349 351 354 355 353 351 349 348 348 345 343 342 342 344 343 343 343 342 341 341 341 341 341 339 341 342 343 341 340 343 341 340 341 341 338 338 337
342 348 345 337 334 339 352 351 355 354 351 351 350 348 347 347 344 340 335 336 343 342 341 341 340 339 339 341 339 336 334 332 331 336 339 340 338 338 339 339 338 338 338
348 349 338 339 342 352 354 353 356 353 352 348 351 350 348 347 345 340 334 333 339 342 342 342 343 341 342 342 340 339 334 330 326 328 337 338 339 338 339 340 339 338 336
344 345 350 351 351 353 355 354 353 354 352 350 349 350 350 348 348 343 338 336 340 342 341 341 341 341 342 341 340 338 340 339 338 335 335 336 335 338 337 338 337 336 336
336 335 336 341 350 351 351 351 350 350 347 349 348 348 348 347 349 346 343 342 343 343 342 342 341 339 341 341 339 336 338 340 335 337 334 333 331 333 335 338 338 337 336
332 333 337 340 341 349 349 349 348 350 351 349 349 348 348 348 347 349 347 345 345 344 344 344 343 342 341 339 338 339 335 340 338 336 338 335 330 331 331 336 336 336 337
325 325 327 328 331 335 335 331 347 347 345 345 345 345 346 345 343 343 342 341 341 343 343 343 343 342 342 341 340 335 334 339 338 339 336 338 336 334 333 330 335 335 335
322 323 326 327 327 326 326 328 328 339 339 340 339 338 339 339 340 341 340 340 339 338 338 339 341 341 341 341 340 340 336 335 338 338 338 336 336 336 335 333 332 333 334
322 321 321 324 326 329 327 329 330 334 333 335 336 335 335 334 336 337 337 338 339 339 338 339 337 336 337 338 340 339 338 334 336 336 337 336 336 336 336 335 334 331 331
330 326 325 325 325 329 330 327 327 327 328 329 330 330 330 330 330 331 332 334 335 336 338 337 335 336 335 333 334 336 337 335 336 336 336 336 336 336 335 335 333 332 331
332 330 329 327 329 330 331 332 330 329 328 326 325 326 326 326 327 328 330 333 335 335 334 335 335 336 335 334 333 335 336 335 334 335 335 336 336 335 335 334 334 333 332
328 328 326 327 328 327 328 329 331 331 331 331 330 328 326 325 325 326 329 331 333 336 336 335 334 334 335 333 333 335 336 336 335 335 334 334 335 335 335 334 334 333 333
327 326 326 326 327 327 326 326 326 328 329 331 330 330 329 327 327 328 329 332 335 335 336 336 336 336 335 335 338 336 336 336 335 333 334 333 332 332 333 334 334 332 332
324 324 325 325 324 324 324 324 323 324 328 329 330 330 329 328 329 329 327 329 333 334 333 334 334 335 334 333 333 334 334 334 333 331 332 330 329 329 329 330 329 328 326
323 322 322 322 322 323 323 323 323 323 323 326 330 330 328 328 329 328 326 327 329 330 331 331 331 332 332 333 332 332 331 331 331 331 330 329 325 325 324 324 323 323 322
323 322 322 322 323 323 323 324 323 323 323 327 329 328 324 324 325 325 326 325 325 326 326 326 327 328 329 330 330 329 328 327 326 325 324 323 323 324 323 321 319 319 318
323 323 324 324 325 324 324 325 324 323 324 329 328 327 324 325 325 325 324 324 324 323 323 324 323 324 325 326 325 323 321 320 321 321 321 322 323 320 319 319 321 321 319
323 322 323 325 325 325 325 325 327 327 328 328 327 327 325 323 321 320 320 320 321 321 320 320 320 321 323 322 322 322 321 322 323 322 321 321 320 319 319 318 318 317 316
323 323 324 325 325 324 323 324 325 323 326 327 326 325 324 322 319 319 320 320 320 320 320 320 320 320 320 321 320 320 320 319 318 319 318 319 319 317 318 317 316 314 313
321 323 323 324 324 324 324 324 324 325 324 325 325 324 324 322 323 322 320 319 318 319 321 320 317 316 317 315 316 317 318 318 319 318 318 317 317 316 315 313 312 312 312
320 320 322 321 323 323 323 324 322 322 323 324 324 324 323 323 322 322 320 321 319 319 319 319 317 315 314 316 315 312 311 310 309 312 312 312 312 313 313 313 312 311 311
Wind_Speed
37 34 34 30 26 24 20 18 17 17 13 10 11 11 10 13 13 14 17 16 16 15 16 17 15 15 17 18 18 18 17 18 21 14 17 17 18 13 14 14 14 14 13
38 37 33 29 26 23 21 20 17 16 13 11 11 10 9 9 11 12 11 11 13 13 14 13 14 16 18 17 14 16 16 18 23 21 19 19 17 19 15 13 15 16 13
35 34 30 27 26 24 22 20 18 16 13 10 10 10 9 8 9 8 9 9 9 11 12 13 13 14 16 16 15 16 17 17 17 18 15 20 22 21 18 18 18 15 13
28 30 30 28 27 26 22 19 18 16 13 12 11 11 10 10 10 9 10 10 11 11 11 11 11 14 14 14 16 16 17 17 16 16 18 21 21 20 22 20 20 17 14
27 30 32 34 30 23 16 18 18 15 13 14 11 11 12 11 9 10 9 11 10 11 11 10 10 12 15 15 12 13 15 15 13 12 17 22 22 23 24 23 21 17 16
17 23 34 30 20 22 19 15 15 15 15 14 13 11 13 11 14 17 14 10 10 9 9 11 12 16 20 23 22 21 16 13 15 15 16 19 21 21 22 23 23 21 20
11 5 16 15 10 23 20 22 22 20 18 16 14 13 12 14 17 17 14 16 13 12 13 13 13 14 18 16 18 22 24 25 25 19 19 16 14 17 19 21 27 23 21
12 14 28 30 29 27 23 22 22 21 20 18 15 14 13 14 19 15 13 15 16 15 15 15 16 18 16 17 16 19 17 21 24 22 19 17 17 20 14 19 24 20 23
7 3 11 11 14 16 20 21 24 22 19 21 18 17 17 15 20 18 15 15 16 17 17 18 19 20 20 23 22 17 17 15 17 18 21 20 18 19 16 21 26 27 27
10 6 11 13 14 16 19 23 24 20 19 17 17 17 18 17 20 21 18 16 17 17 18 20 21 23 22 25 27 25 20 22 18 20 20 23 19 18 19 22 23 30 28
14 15 5 3 13 13 19 24 24 19 15 15 14 14 16 15 19 22 23 23 21 21 24 23 22 26 26 26 32 29 25 21 19 22 21 17 20 20 21 23 23 23 29
17 16 15 13 11 4 7 14 21 16 10 8 9 12 11 13 17 22 23 22 24 27 28 26 25 28 29 31 32 33 30 26 22 21 23 20 20 20 21 22 26 25 23
16 17 17 13 12 11 12 5 15 11 1 1 6 9 10 11 17 21 24 26 25 27 31 29 32 33 35 35 34 36 34 34 27 26 25 25 24 21 20 21 21 24 27
8 10 13 14 13 12 11 4 2 8 3 5 6 6 9 13 14 15 20 19 23 24 28 27 30 36 40 47 41 40 41 38 31 29 28 25 23 24 27 26 24 25 22
5 7 7 4 4 9 12 9 7 7 7 5 7 9 11 13 13 19 23 27 27 23 17 24 25 26 28 33 42 45 45 42 36 31 30 29 30 29 26 28 29 26 26
6 6 5 5 3 4 5 9 9 10 12 12 10 9 11 14 15 17 19 19 21 25 24 28 27 22 19 20 22 28 40 37 34 34 34 34 32 33 33 32 32 31 31
7 8 7 7 7 7 7 7 9 8 11 12 14 15 16 17 20 20 20 15 17 22 27 25 23 17 14 18 20 29 27 31 33 33 33 35 33 33 35 37 36 36 34
11 11 10 8 9 10 10 9 9 10 7 10 12 16 20 21 20 25 24 11 11 13 16 20 19 17 17 15 15 25 29 31 29 28 30 28 29 30 35 37 38 36 32
13 12 10 12 11 12 12 10 9 10 8 9 9 12 14 17 15 19 20 12 12 10 10 12 15 16 15 14 16 18 20 23 20 21 25 23 25 25 28 22 18 16 14
12 13 14 14 12 12 12 12 11 10 11 10 11 10 11 10 10 11 16 15 10 9 11 13 15 16 14 13 13 13 14 15 19 22 21 19 14 12 9 10 13 10 9
10 10 13 11 9 11 12 12 11 10 10 6 8 9 13 8 7 8 10 13 16 11 5 4 3 3 6 10 11 12 10 9 8 9 14 15 14 19 14 14 12 10 7
6 7 9 10 11 10 10 10 10 10 8 4 4 8 9 7 6 5 5 7 9 9 11 9 8 7 8 11 14 19 19 18 16 14 16 15 13 11 12 11 13 13 13
6 8 9 8 11 11 8 8 8 7 5 1 2 1 5 7 12 13 11 9 8 10 14 13 12 11 12 13 11 11 13 13 12 11 11 11 11 9 10 10 11 12 13
7 7 8 8 9 7 8 7 9 7 5 4 3 4 5 6 6 6 6 7 7 7 7 7 7 6 7 8 8 6 6 7 7 7 6 7 7 11 11 12 13 11 13
8 10 9 8 6 7 8 7 7 6 6 4 5 7 5 4 4 3 3 2 1 2 2 1 5 4 2 6 8 8 7 11 9 9 6 7 8 9 10 10 9 10 10
6 6 6 6 7 8 7 6 6 6 6 8 7 8 7 6 5 3 3 2 3 3 3 1 3 3 2 5 4 5 6 8 10 12 10 8 9 9 10 9 10 9 9
Wind_Direction
196 200 204 205 205 199 201 210 208 215 212 208 215 211 227 255 267 264 261 252 247 247 246 241 233 234 233 244 241 242 250 245 248 253 247 246 269 250 258 259 262 261 271
195 198 199 199 194 193 193 202 210 212 212 216 214 218 210 241 260 269 265 245 232 234 239 235 233 234 244 239 240 242 244 247 244 251 251 251 246 270 265 259 259 264 262
197 193 192 190 184 187 194 201 205 204 210 222 229 222 220 213 242 255 262 255 244 239 236 242 238 228 237 239 239 246 250 255 250 247 249 249 253 263 262 254 255 255 258
197 192 187 184 181 184 188 195 195 195 206 212 223 232 222 214 213 221 240 245 247 246 242 234 237 245 244 241 241 241 241 248 249 249 246 252 254 257 259 249 247 241 235
195 191 183 180 176 173 181 193 192 196 205 210 209 222 230 221 217 220 218 242 256 265 260 258 251 246 243 246 237 247 242 248 247 248 244 253 260 258 251 243 236 231 227
177 175 173 169 160 180 183 187 196 195 203 210 202 211 233 227 230 226 212 219 237 249 249 255 254 263 256 250 250 246 242 236 241 248 263 263 263 257 251 238 223 217 217
293 301 155 115 196 255 195 181 206 199 202 206 215 208 215 236 237 240 239 229 222 238 241 240 251 259 260 252 263 253 248 248 249 246 250 262 269 266 243 231 220 219 217
194 183 182 211 232 199 194 194 203 201 200 207 206 222 214 234 244 245 239 239 237 237 237 245 248 251 246 248 241 260 263 250 247 241 248 246 246 263 252 230 219 217 216
123 168 210 235 229 214 209 205 199 203 202 214 219 216 223 223 247 252 245 245 245 245 247 243 244 247 248 250 251 240 244 244 249 242 234 238 242 241 243 216 213 208 212
15 337 258 233 227 230 221 217 208 212 210 217 223 230 234 232 243 249 249 245 244 250 258 259 249 245 240 252 254 249 232 244 237 253 250 245 245 242 238 230 225 219 216
40 38 16 288 239 244 239 240 222 207 193 203 217 235 243 240 248 247 247 243 244 251 250 250 251 254 259 256 249 250 238 240 242 233 242 237 237 237 231 222 219 225 223
43 45 49 35 36 351 311 316 164 173 190 209 229 243 256 278 274 268 269 266 257 256 256 256 257 255 258 260 257 256 247 234 231 237 232 231 228 224 229 228 218 225 223
45 34 30 34 34 18 8 40 358 334 91 217 275 273 277 279 264 271 274 270 263 266 263 257 252 254 255 254 254 251 248 234 229 234 232 234 235 229 228 227 233 227 224
48 47 37 23 17 30 21 20 260 268 343 23 286 302 293 280 280 274 262 262 264 258 272 270 266 264 259 255 248 242 243 230 226 230 236 236 235 234 230 220 220 229 219
40 61 67 51 9 3 351 7 0 13 24 345 312 298 297 300 298 290 279 264 259 255 255 267 281 290 280 265 257 252 235 222 224 225 232 236 233 225 224 231 231 231 217
1 4 360 24 353 307 302 310 332 359 8 3 350 343 334 333 327 316 289 277 261 256 267 272 275 288 288 281 263 237 223 220 228 230 233 238 239 239 233 225 225 222 215
337 322 318 309 297 283 280 289 301 316 338 345 342 341 343 342 340 335 328 285 263 253 260 262 267 278 276 270 252 218 215 221 226 236 242 243 247 248 243 229 225 220 225
310 308 308 299 291 288 288 291 297 296 312 319 331 335 333 334 345 347 341 310 287 280 269 260 259 275 280 271 253 234 232 235 242 253 258 260 267 273 256 233 230 223 229
304 300 299 294 290 287 288 286 279 279 282 310 315 323 333 334 344 341 338 332 288 262 274 271 261 259 261 264 262 260 260 257 245 250 258 260 266 269 257 244 232 218 223
308 303 307 310 307 302 297 297 296 298 297 299 308 310 320 336 330 338 7 12 342 303 289 274 262 263 269 264 250 249 229 240 241 249 249 257 240 225 206 160 150 140 139
307 305 302 308 312 295 290 289 287 286 289 288 307 302 319 326 350 356 17 29 41 28 13 6 29 300 274 263 244 228 219 203 179 169 152 142 131 139 131 138 137 136 139
307 302 302 300 300 284 283 286 287 287 286 312 317 312 350 6 7 350 6 50 53 63 69 58 62 73 81 104 112 118 116 114 114 124 130 140 152 145 127 140 157 152 164
301 312 312 302 302 298 296 282 307 335 347 321 275 72 77 88 94 94 82 74 85 77 67 49 45 55 73 85 88 112 118 121 133 139 138 148 157 149 148 155 161 161 155
318 327 325 330 319 308 320 316 309 303 302 268 204 164 159 135 134 125 120 115 100 86 61 55 69 62 66 79 81 92 118 118 125 127 124 143 156 144 148 153 148 163 179
306 342 337 340 339 344 330 326 306 285 253 228 206 188 189 171 160 185 203 190 208 289 309 125 111 57 103 137 171 191 173 144 148 144 155 157 166 157 164 165 170 169 175
326 325 312 342 330 350 340 337 318 257 232 227 209 203 201 193 198 204 202 210 293 279 290 204 156 172 156 233 224 199 186 185 171 155 149 169 169 167 169 175 175 177 185